Location: Austin
(30.3000°N, 97.7500°W)
Time: 11:07:57
(UTC-05:00)

Okean O Rocket - Pass Details

Date: 05 September 2024
Orbit: 618 x 638 km, 98.1° (Epoch: 10 September)

Event Time Altitude Azimuth Distance (km) Brightness Sun altitude
Exits shadow 21:00:47 19° 64° (ENE) 1,512 3.1 -16.1°
Drops below altitude 10° 21:03:37 10° 25° (NNE) 2,029 4.1 -16.7°
Sets 21:06:20 0° 8° (N) 2,942 5.2 -17.3°
